Location: Allentsteig
(48.6833°N, 15.3167°E)
Time: 00:02:15
(UTC+00:00)

Cosmos 2298 Rocket - Pass Details

Date: 25 January 2021
Orbit: 775 x 784 km, 74.0° (Epoch: 03 March)

Event Time Altitude Azimuth Distance (km) Brightness Sun altitude
Rises 17:23:25 0° 154° (SSE) 3,250 7.1 -16.0°
Reaches altitude 10° 17:26:30 10° 136° (SE) 2,330 6.2 -16.5°
Enters shadow 17:27:05 12° 131° (SE) 2,193 6.0 -16.6°
